Regional Weather Roundup
Issued by NWS Jackson, KY

Home | Current Version | Previous Version | Graphics & Text | Print | Product List | Glossary On
Versions: 1 2 3 4 5 6 7 8 9 10 11 12 13 14 15 16 17 18 19 20 21 22 23 24 25 26 27 28 29 30 31 32 33 34 35 36 37 38 39 40 41 42 43 44 45 46 47 48 49 50
000
ASUS43 KJKL 282310
RWRJKL

EAST KENTUCKY HOURLY WEATHER ROUNDUP
NATIONAL WEATHER SERVICE JACKSON KY
700 PM EDT TUE MAR 28 2017

NOTE: "FAIR" INDICATES FEW OR NO CLOUDS BELOW 12,000 FEET WITH
NO SIGNIFICANT WEATHER AND/OR OBSTRUCTIONS TO VISIBILITY.

* THESE REPORTS ARE NOT UNDER NWS QUALITY CONTROL AND MAY NOT
  REPORT WEATHER SUCH AS PRECIPITATION AND FOG.

KYZ079-080-083-085-087-088-110-112-115-119-120-290000
...EASTERN KENTUCKY...

CITY           SKY/WX    TMP DP  RH WIND       PRES   REMARKS
JACKSON        CLOUDY    61  52  72 NW3       30.02R
LONDON         CLOUDY    63  51  65 W8        30.02R
SOMERSET*      CLOUDY    61  52  72 N7        30.04R
MONTICELLO*    CLOUDY    62  53  72 N10       30.05R
WILLIAMSBURG*  CLOUDY    63  54  72 NW5       30.03R
MIDDLESBORO*   CLOUDY    65  52  63 NW5       30.01R
HARLAN APT*    CLOUDY    63  50  63 CALM      30.02R
PIKE CO APT*   CLOUDY    61  54  78 W7        30.02R
BIG SANDY APT* CLOUDY    63  54  72 W3        30.02R
MOREHEAD APT*  CLOUDY    61  54  77 N8G14     30.04R
ASHLAND*       CLOUDY    61  55  82 NW3       30.00R
$$

KYZ035-036-041-042-044-050-067-078-099-290000
...CENTRAL KENTUCKY...

CITY           SKY/WX    TMP DP  RH WIND       PRES   REMARKS
MT STERLING*   CLOUDY    61  54  77 N8        30.04R
FLEMING/MASON* CLOUDY    57  54  88 N5        30.05R
DANVILLE*      CLOUDY    59  54  82 NW6       30.05R
LEXINGTON      CLOUDY    60  53  77 N7        30.04R
FRANKFORT      CLOUDY    61  51  70 VRB5      30.03R
LOUISVILLE     MOSUNNY   63  48  58 N13       30.04R
LEBANON*       CLOUDY    59  55  88 N5        30.04R
GLASGOW*       CLOUDY    62  55  75 CALM      30.03R
BOWLING GREEN  CLOUDY    63  55  75 N5        30.03S
$$

KYZ091>093-OHZ055-061-077-WVZ005-015-034-035-042-290000
...SOUTHERN OHIO/WEST VIRGINIA...

CITY           SKY/WX    TMP DP  RH WIND       PRES   REMARKS
COVINGTON      CLOUDY    56  50  80 N8        30.06R
COLUMBUS       CLOUDY    53  45  74 N15       30.06R
DAYTON         CLOUDY    52  46  80 N9        30.08R
WILMINGTON     CLOUDY    54  49  83 N5        30.05R
HUNTINGTON     CLOUDY    60  56  86 NW6       30.00R
CHARLESTON     CLOUDY    65  51  60 NW9       29.97R
PINEVILLE*     CLOUDY    61  51  70 MISG      30.05R
BECKLEY        CLOUDY    57  51  80 NW7       30.00R
BLUEFIELD      CLOUDY    55  48  77 NW7G16    30.01R
LOGAN CO APT*  CLOUDY    61  54  77 CALM      30.00R
$$

VAZ002-007-008-TNZ017-027-036-066-071-290000
...SOUTHWEST VIRGINIA/EAST TENNESSEE...

CITY           SKY/WX    TMP DP  RH WIND       PRES   REMARKS
WISE*          DRIZZLE   57  50  77 CALM      30.05R
JONESVILLE*    CLOUDY    64  52  63 CALM      30.03R
ABINGDON*      CLOUDY    63  52  66 N8        30.01R
BRISTOL        CLOUDY    66  51  58 NW7       30.00R
MORRISTOWN*    CLOUDY    68  52  56 NW5       29.98R
SEVIERVILLE*   CLEAR     72  52  49 SW7       29.97R
KNOXVILLE      MOSUNNY   72  50  45 W6        29.96S
LAFOLLETTE*    CLEAR     68  50  52 VRB5      30.02R
OAK RIDGE      PTSUNNY   72  48  42 VRB7      29.98R
CROSSVILLE     CLOUDY    62  49  62 NW6       30.04R
NASHVILLE      MOSUNNY   69  53  56 N12       30.01R
$$

...KEY TO REMARKS...
VSB - VISIBILITY IN MILES
WCI - WIND CHILL INDEX
HX  - HEAT INDEX

$$



USA.gov is the U.S. government's official web portal to all federal, state and local government web resources and services.